Regional Weather Roundup
Issued by NWS

Home | Current Version | Previous Version | Graphics & Text | Print | Product List | Glossary On
Versions: 1 2 3 4 5 6 7 8 9 10 11 12 13 14 15 16 17 18 19 20 21 22 23 24 25 26 27
000
ASUS45 KCYS 111610
RWRWY

WYOMING REGIONAL WEATHER ROUNDUP
NATIONAL WEATHER SERVICE CHEYENNE WY
900 AM MST MON DEC 11 2017

NOTE:  "FAIR" INDICATES FEW OR NO CLOUDS BELOW 12,000 FEET
WITH NO SIGNIFICANT WEATHER AND/OR OBSTRUCTIONS TO VISIBILITY.

WYZ001-111700-
YELLOWSTONE NATIONAL PARK

CITY           SKY/WX    TMP DP  RH WIND       PRES   REMARKS
LK YELLOWSTONE   N/A      8   5  87 CALM      30.59R
W YELLOWSTONE  NOT AVBL

$$
WYZ002>013-054>058-071-098>099-111700-
NORTHERN WYOMING

CITY           SKY/WX    TMP DP  RH WIND       PRES   REMARKS
JACKSON        FAIR      12  10  92 CALM      30.62S
CODY           NOT AVBL
GREYBULL       FAIR      14  10  84 CALM      30.47R
WORLAND        FAIR      18  15  88 W3        30.45R
SHERIDAN       FAIR      38  17  42 CALM      30.39R
BUFFALO        FAIR      42  11  28 N10       30.37R
GILLETTE         N/A     37  17  44 W10       30.36R WCI  30
HULETT         FAIR      37  19  48 NW16      30.34S WCI  28
NEWCASTLE      FAIR      37  14  38 NW21G30   30.31R WCI  27

$$
WYZ014>020-022>026-101>103-111700-
CENTRAL WYOMING

CITY           SKY/WX    TMP DP  RH WIND       PRES   REMARKS
BIG PINEY      FAIR      32  10  40 N8        30.50R WCI  25
PINEDALE       FAIR      34  12  40 N9        30.49R WCI  26
DUBOIS         FAIR      43  19  39 W25       30.44F
LANDER         FAIR      19  12  74 N5        30.43R WCI  12
RIVERTON       FAIR      21  15  78 E6        30.45R WCI  13
CASPER         FAIR      34  12  40 SW21G31   30.40R WCI  22
DOUGLAS        FAIR      30  19  63 W8        30.39S WCI  22

$$
WYZ021-027>030-104>119-111700-
SOUTHERN WYOMING

CITY           SKY/WX    TMP DP  RH WIND       PRES   REMARKS
EVANSTON       FAIR      28   6  39 CALM      30.55R
FORT BRIDGER   FAIR      33   3  28 W10       30.56R WCI  25
ROCK SPRINGS   FAIR      31   5  33 NW3       30.50F
DIXON          FAIR      12   4  71 CALM      30.55F
RAWLINS        FAIR      33   7  33 SW7       30.50R WCI  27
SARATOGA       FAIR      19   9  63 E6        30.50R WCI  11
LARAMIE        FAIR      31   8  38 E3        30.40S
CHEYENNE       FAIR      42   3  19 NW13      30.35S
TORRINGTON     FAIR      37  15  40 W7        30.35R WCI  32
PINE BLUFFS    FAIR      41   3  20 MISG      30.35R

$$




USA.gov is the U.S. government's official web portal to all federal, state and local government web resources and services.